DW7000 Weather Reports


time (UTC)temp
C
wind
direction
speed
KPH
gust
KPH
rain 1hr
cm
rain 24hr
cm
rain mn
cm
humidity
%
barometer
mb
20260503231534 17 176 0.0 0.0 0.00 0.00 0.00 45 1014.1
20260503230030 17 139 0.0 0.0 0.00 0.00 0.00 44 1014.2
20260503224529 17 355 0.0 0.0 0.00 0.00 0.00 43 1014.2
20260503223029 17 154 0.0 1.6 0.00 0.00 0.00 45 1014.3
20260503221528 17 165 0.0 1.6 0.00 0.00 0.00 43 1014.2
20260503220028 18 153 0.0 4.8 0.00 0.00 0.00 42 1014.2
20260503214528 18 248 0.0 0.0 0.00 0.00 0.00 43 1014.3
20260503213025 18 149 0.0 1.6 0.00 0.00 0.00 41 1014.4
20260503211525 19 146 0.0 0.0 0.00 0.00 0.00 40 1014.5
20260503210027 18 231 0.0 0.0 0.00 0.00 0.00 40 1014.5
20260503204533 19 152 0.0 0.0 0.00 0.00 0.00 38 1014.6
20260503203024 18 214 0.0 0.0 0.00 0.00 0.00 40 1014.9
20260503201522 18 160 0.0 6.4 0.00 0.00 0.00 39 1015.3
20260503200020 18 138 0.0 1.6 0.00 0.00 0.00 43 1015.5
20260503194523 18 34 0.0 1.6 0.00 0.00 0.00 41 1015.7
20260503193027 17 173 0.0 3.2 0.00 0.00 0.00 40 1015.9
20260503191518 18 171 0.0 1.6 0.00 0.00 0.00 39 1016.1
20260503190016 18 243 0.0 3.2 0.00 0.00 0.00 42 1016.3
20260503184532 18 121 0.0 0.0 0.00 0.00 0.00 42 1016.5
20260503183013 17 131 0.0 3.2 0.00 0.00 0.00 41 1016.6
20260503181513 17 225 0.0 0.0 0.00 0.00 0.00 42 1016.7
20260503180020 17 231 0.0 1.6 0.00 0.00 0.00 42 1016.8
20260503174510 17 328 0.0 6.4 0.00 0.00 0.00 43 1017.1
20260503173008 16 221 0.0 0.0 0.00 0.00 0.00 46 1017.1
20260503171507 16 39 0.0 3.2 0.00 0.00 0.00 42 1017.4
20260503081557 6 290 0.0 0.0 0.00 0.00 0.00 72 1015.3
20260503071548 7 294 0.0 1.6 0.00 0.00 0.00 69 1014.6
20260503054539 8 300 0.0 3.2 0.00 0.00 0.00 63 1014.2
20260503053040 7 326 0.0 0.0 0.00 0.00 0.00 65 1014.3
20260503051536 7 18 0.0 0.0 0.00 0.00 0.00 62 1014.5
20260503050035 7 342 0.0 0.0 0.00 0.00 0.00 63 1014.4
20260503044533 8 29 0.0 0.0 0.00 0.00 0.00 62 1014.4
20260503043033 8 354 0.0 0.0 0.00 0.00 0.00 62 1014.3
20260503041530 8 34 0.0 0.0 0.00 0.00 0.00 60 1014.2
20260503040030 8 9 0.0 0.0 0.00 0.00 0.00 60 1014.1
20260503034537 8 11 0.0 0.0 0.00 0.00 0.00 58 1013.9
20260503033021 8 1 0.0 0.0 0.00 0.00 0.00 57 1013.7
20260503031522 9 16 0.0 0.0 0.00 0.00 0.00 56 1013.6
20260503030016 9 314 0.0 3.2 0.00 0.00 0.00 55 1013.4
20260503024515 10 323 0.0 4.8 0.00 0.00 0.00 53 1013.4
20260503023012 10 311 0.0 17.7 0.00 0.00 0.00 53 1013.0
20260503021510 10 304 1.6 16.1 0.00 0.00 0.00 51 1012.3
20260503020008 10 333 1.6 19.3 0.00 0.00 0.00 52 1012.0
20260503014512 10 312 0.0 27.4 0.00 0.00 0.00 51 1012.0
20260503013003 10 29 0.0 19.3 0.00 0.00 0.00 50 1011.6
20260503011501 10 360 1.6 20.9 0.00 0.00 0.00 49 1011.4
20260503010100 11 300 1.6 19.3 0.00 0.00 0.00 48 1011.4
20260503004603 11 314 0.0 6.4 0.00 0.00 0.00 48 1011.3
20260503003058 11 260 0.0 1.6 0.00 0.00 0.00 46 1011.1
20260503001557 11 71 0.0 1.6 0.00 0.00 0.00 45 1010.8
20260503000056 12 294 0.0 9.7 0.00 0.00 0.00 44 1010.5
20260502234556 12 312 0.0 4.8 0.00 0.00 0.00 44 1010.4
20260502233102 12 81 0.0 9.7 0.00 0.00 0.00 44 1010.3